Overview Statistics Trail Chart Weather Telemetry Raw packets
 

This is the latest recevied weather packets stored in our database for station/object HP1MRA-15. If no packets are shown the sender has not sent any weather packets the latest 10 day(s).

<< 29 30 31 32 33 34 35 >>
Time Temp. Humidity Pressure Rain* Wind** Luminosity Snow
1788479917 28.89° C 68% 1000.9 hPa 0 mm - - -
1788479658 29.44° C 68% 1000.8 hPa 0 mm - - -
1788479617 29.44° C 68% 1000.8 hPa 0 mm - - -
1788479317 29.44° C 67% 1000.8 hPa 0 mm - - -
1788479016 29.44° C 66% 1000.8 hPa 0 mm - - -
1788478758 29.44° C 66% 1000.8 hPa 0 mm - - -
1788478717 29.44° C 68% 1000.8 hPa 0 mm - - -
1788478416 29.44° C 66% 1000.8 hPa 0 mm - - -
1788478174 30° C 66% 1000.7 hPa 0 mm - - -
1788477860 30° C 64% 1000.8 hPa 0 mm - - -
1788477858 30° C 65% 1000.8 hPa 0 mm - - -
1788477561 30° C 65% 1000.7 hPa 0 mm - - -
1788477260 30° C 62% 1000.8 hPa 0 mm - - -
1788476960 30° C 62% 1000.7 hPa 0 mm - - -
1788476958 30° C 62% 1000.7 hPa 0 mm - - -
1788476660 30.56° C 62% 1000.7 hPa 0 mm - - -
1788476360 30.56° C 62% 1000.7 hPa 0 mm - - -
1788476058 30.56° C 62% 1000.8 hPa 0 mm - - -
1788475760 30.56° C 62% 1000.8 hPa 0 mm - - -
1788475460 30.56° C 61% 1000.7 hPa 0.25 mm - - -
1788475157 30.56° C 61% 1000.7 hPa 0.25 mm - - -
1788474859 30.56° C 61% 1000.7 hPa 0.25 mm - - -
1788474560 30.56° C 61% 1000.6 hPa 0.51 mm - - -
1788474258 30.56° C 62% 1000.3 hPa 0.76 mm - - -
1788473960 30.56° C 62% 1000.1 hPa 0.76 mm - - -

* Rain latest hour (hover to see other rain measurements)
** Current wind speed in m/s (hover to see current wind gust speed)